Location: Observatorio Las Palmas
(29.0667°N, 110.9333°W)
Time: 15:17:57
(UTC-07:00)

Skynet4D Del rocket - Visible Passes

Search period start: 20 April 2014 00:00
Search period end: 30 April 2014 00:00
Orbit: 763 x 1291 km, 26.9° (Epoch: 18 April)

Date Brightness Start Highest point End Pass type
(mag) Time Alt. Az. Time Alt. Az. Time Alt. Az.
20 Apr 4.8 02:59:51 46° ESE 02:59:51 46° ESE 03:04:26 10° ESE visible
20 Apr 4.4 04:45:30 19° W 04:50:19 46° SSW 04:56:17 10° SE visible
21 Apr 6.6 01:53:13 11° E 01:53:13 11° E 01:53:25 10° E visible
21 Apr 4.2 03:38:52 60° SSW 03:39:07 61° SSW 03:45:44 10° ESE visible
21 Apr 5.0 05:25:41 10° W 05:31:30 28° SSW 05:36:43 10° SSE visible
21 Apr 5.9 20:42:44 10° SSW 20:45:55 19° S 20:45:55 19° S visible
22 Apr 5.8 02:32:20 25° ESE 02:32:20 25° ESE 02:34:53 10° ESE visible
22 Apr 4.6 04:18:00 32° WSW 04:20:29 42° SSW 04:26:39 10° SE visible
22 Apr 6.1 19:34:06 10° S 19:37:18 13° SSE 19:40:02 11° SE visible
22 Apr 5.8 21:22:32 10° SW 21:25:44 23° SSW 21:25:44 23° SSW visible
23 Apr 4.9 03:11:35 41° SE 03:11:35 41° SE 03:16:08 10° ESE visible
23 Apr 5.2 04:57:15 15° WSW 05:01:38 25° SSW 05:06:52 10° SSE visible
23 Apr 5.4 20:12:18 10° SSW 20:18:27 25° SSE 20:19:49 24° SE visible
23 Apr 6.1 22:03:16 10° WSW 22:05:31 20° SW 22:05:31 20° SW visible
24 Apr 4.8 03:50:58 38° SSW 03:50:58 38° SSW 03:56:56 10° SE visible
24 Apr 4.9 20:52:24 10° SW 20:59:32 41° SSE 20:59:32 41° SSE visible
24 Apr 6.6 22:44:33 10° WSW 22:45:14 13° WSW 22:45:14 13° WSW visible
25 Apr 6.1 02:44:48 18° SE 02:44:48 18° SE 02:46:25 10° SE visible
25 Apr 5.3 04:30:29 21° SW 04:31:43 22° SSW 04:36:53 10° SSE visible
25 Apr 5.3 19:42:06 10° SSW 19:48:23 28° SSE 19:53:29 16° ESE visible
25 Apr 4.9 21:33:18 10° WSW 21:39:10 48° SSW 21:39:10 48° SSW visible
26 Apr 5.7 03:24:25 22° SSE 03:24:25 22° SSE 03:27:04 10° SE visible
26 Apr 6.0 05:11:27 10° SW 05:12:44 11° SW 05:14:00 10° SSW visible
26 Apr 4.8 20:22:26 10° SW 20:29:38 45° SSE 20:32:59 31° ESE visible
26 Apr 5.6 22:14:39 10° WSW 22:18:40 33° WSW 22:18:40 33° WSW visible
27 Apr 5.8 04:04:07 17° S 04:04:07 17° S 04:06:43 10° SSE visible
27 Apr 5.2 19:12:04 10° SW 19:18:21 32° SSE 19:25:14 10° E visible
27 Apr 4.4 21:03:27 10° WSW 21:11:05 63° SSE 21:12:21 57° SE visible
27 Apr 6.3 22:56:12 10° W 22:58:01 19° W 22:58:01 19° W visible
28 Apr 4.7 19:52:36 10° SW 19:59:37 50° SSE 20:05:55 16° E visible
28 Apr 4.5 21:44:50 10° WSW 21:51:34 66° SW 21:51:34 66° SW visible
29 Apr 4.4 20:33:43 10° WSW 20:41:05 67° SSE 20:45:01 33° E visible
29 Apr 5.5 22:26:24 10° W 22:30:40 36° W 22:30:40 36° W visible
